Location: Richmond
(37.5536°N, 77.4606°W)
Time: 14:55:58
(UTC-04:00)

ISS - Visible Passes

Search period start: 23 August 2014 00:00
Search period end: 02 September 2014 00:00
Orbit: 413 x 419 km, 51.6° (Epoch: 23 August)

Date Brightness Start Highest point End Pass type
(mag) Time Alt. Az. Time Alt. Az. Time Alt. Az.
23 Aug -2.4 21:09:21 10° WNW 21:12:32 44° SW 21:13:58 26° S visible
24 Aug -3.3 20:20:41 10° NW 20:24:01 86° SW 20:27:20 10° SE visible
25 Aug -0.6 21:09:57 10° W 21:11:49 14° SW 21:13:40 10° SSW visible
26 Aug -1.3 20:20:32 10° WNW 20:23:21 26° SW 20:26:10 10° S visible
